Flag for Germany Weather past 2 weeks in Rostock, Mecklenburg-Western Pomerania, Germany

Now
60 °F

Partly sunny.


Feels Like: 58 °F
Forecast: 51 / 56 °F
Wind: 10 mph from West

Location: Rostock-Warnemuende

Current Time: Oct 20, 2014 at 2:30:30 PM

Latest Report: Oct 20, 2014 at 2:00 PM


Visibility: 19 mi

Pressure: 29.80 "Hg

Humidity: 70%

Dew point: 50 °F

Location of RostockLocation

Historic Weather in Rostock — Graph

°F

Rostock temperature yesterday

Maximum temperature yesterday: 71 °F (at 3:00 PM)
Minimum temperature yesterday: 58 °F (at 8:00 AM)
Average temperature yesterday: 62 °F

Past Weeks' High & Low Weather Summary

 TemperatureHumidityPressure
High71 °F (Oct 19, 3:00 PM)100% (Oct 14, 10:00 PM)30.18 "Hg (Oct 14, 10:00 PM)
Low48 °F (Oct 6, 7:00 AM)57% (Oct 6, 3:00 PM)29.58 "Hg (Oct 7, 5:00 PM)
Average57 °F86%29.85 "Hg
* Reported Oct 5 1:00 PM — Oct 20 1:00 PM, Rostock, Weather by CustomWeather, © 2014

Note: Actual official high and low records may vary slightly from our data, if they occured in-between our weather recording intervals... More about our weather records

Advertising

Rostock weather history for previous 24 hours

 ConditionsComfort  
Time TempWeatherWind HumidityBarometerVisibility
1:00 PM
Oct 20
59 °FScattered clouds.10 mph77%29.80 "Hg16 mi
12:00 PM59 °FScattered clouds.12 mph79%29.80 "Hg19 mi
11:00 AM59 °FPassing clouds.8 mph79%29.78 "Hg22 mi
10:00 AM58 °FPartly sunny.7 mph83%29.77 "Hg19 mi
9:00 AM57 °FOvercast.7 mph86%29.75 "Hg16 mi
8:00 AM57 °FSprinkles. Overcast.7 mph88%29.74 "Hg7 mi
7:00 AM58 °FPassing clouds.7 mph82%29.73 "Hg16 mi
5:00 AM59 °FOvercast.6 mph81%29.75 "Hg12 mi
4:00 AM59 °FOvercast.6 mph82%29.76 "Hg19 mi
3:00 AM59 °FPassing clouds.6 mph82%29.78 "Hg19 mi
2:00 AM59 °FPassing clouds.6 mph84%29.78 "Hg22 mi
1:00 AM59 °FPassing clouds.5 mph84%29.79 "Hg22 mi
12:00 AM59 °FPassing clouds.5 mph82%29.79 "Hg22 mi
11:00 PM
Oct 19
60 °FPassing clouds.7 mph83%29.80 "Hg22 mi
10:00 PM60 °FPassing clouds.8 mph90%29.78 "Hg19 mi
9:00 PM62 °FOvercast.9 mph86%29.78 "Hg25 mi
8:00 PM63 °FOvercast.7 mph92%29.77 "Hg16 mi
7:00 PM61 °FLow clouds.7 mph98%29.78 "Hg6 mi
6:00 PM61 °FRain showers. Low clouds.9 mph94%29.77 "Hg1 mi
5:00 PM71 °FPartly sunny.7 mph65%29.77 "Hg25 mi
4:00 PM71 °FPartly sunny.6 mph68%29.78 "Hg22 mi
3:00 PM71 °FPartly sunny.7 mph67%29.81 "Hg14 mi
2:00 PM70 °FScattered clouds.6 mph70%29.84 "Hg12 mi
Weather by CustomWeather, © 2014

See weather overviewHow to use our weather pages